Weather reports worldwide

Advertisment
Stuttgart-Echterdingen, Germany (10738): temperature & dewpoint: 24.09.2020 23:00:00 - 30.09.2020 23:00:00 (CEST)Stuttgart-Echterdingen, Germany (10738): temperature 5cm & temperature -5cm: 24.09.2020 23:00:00 - 30.09.2020 23:00:00 (CEST)Stuttgart-Echterdingen, Germany (10738): temperature -20cm & temperature -100cm: 24.09.2020 23:00:00 - 30.09.2020 23:00:00 (CEST)Stuttgart-Echterdingen, Germany (10738): wind speed & gusts: 24.09.2020 23:00:00 - 30.09.2020 23:00:00 (CEST)Stuttgart-Echterdingen, Germany (10738): wind direction: 24.09.2020 23:00:00 - 30.09.2020 23:00:00 (CEST)Stuttgart-Echterdingen, Germany (10738): reduced air pressure: 24.09.2020 23:00:00 - 30.09.2020 23:00:00 (CEST)Stuttgart-Echterdingen, Germany (10738): visibility: 24.09.2020 23:00:00 - 30.09.2020 23:00:00 (CEST)Stuttgart-Echterdingen, Germany (10738): sunshine duration: 24.09.2020 23:00:00 - 30.09.2020 23:00:00 (CEST)Stuttgart-Echterdingen, Germany (10738): precipitation: 24.09.2020 23:00:00 - 30.09.2020 23:00:00 (CEST)
Date & Time tt [°C] td [°C] tt 5cm [°C] tt -5cm [°C] tt -20cm [°C] tt -100cm [°C] ff [km/h] ff [kn] fx [km/h] fx [kn] dd ppp [hPa] vv [km] sd [min] rr [mm]
30.09.2020 23:00:00 10,1 9,0 5,7 13,2 15,7 16,1 4 2 7 4 ENE 1013,0 10 0 0,0
30.09.2020 22:00:00 10,8 9,6 6,3 14,2 15,9 16,1 5 3 8 4 ENE 1013,1 40 0 0,0
30.09.2020 21:00:00 11,8 10,2 7,0 15,3 16,0 16,1 5 3 18 10 E 1013,0 10 0 0,0
30.09.2020 20:00:00 13,3 10,4 11,2 16,6 16,0 16,1 14 8 23 13 ENE 1012,9 40 0 0,0
30.09.2020 19:00:00 14,5 10,6 13,0 18,3 15,8 16,1 13 7 22 12 E 1012,9 10 48 0,0
30.09.2020 18:00:00 17,2 10,6 18,3 20,0 15,5 16,1 11 6 16 9 ENE 1012,4 10 60 0,0
30.09.2020 17:00:00 17,6 10,3 21,1 21,1 15,1 16,1 8 4 15 8 E 1012,9 10 60 0,0
30.09.2020 16:00:00 17,5 10,0 22,5 21,5 14,6 16,1 5 3 13 7 - 1013,6 10 60 0,0
30.09.2020 15:00:00 17,2 9,8 22,3 20,9 14,2 16,1 6 3 14 8 NNE 1014,3 45 60 0,0
30.09.2020 14:00:00 16,2 9,8 20,0 19,8 13,6 16,1 5 3 11 6 NNE 1015,5 45 55 0,0
30.09.2020 13:00:00 15,5 8,9 21,1 18,5 13,1 16,1 4 2 15 8 - 1016,1 10 57 0,0
30.09.2020 12:00:00 14,5 10,3 18,4 18,4 12,6 16,2 5 3 11 6 E 1016,7 10 60 0,0
30.09.2020 11:00:00 14,4 10,3 16,6 15,3 12,3 16,2 8 4 9 5 E 1017,2 10 60 0,0
30.09.2020 10:00:00 12,3 8,8 13,3 12,0 12,3 16,2 2 1 5 3 - 1017,9 10 8 0,0
30.09.2020 09:00:00 11,1 9,3 10,9 10,3 12,4 16,2 2 1 5 3 - 1018,2 10 0 0,0
30.09.2020 08:00:00 9,0 7,6 7,0 9,3 12,5 16,2 2 1 4 2 SSW 1018,5 3,0 0 0,0
30.09.2020 07:00:00 10,0 8,3 7,1 10,2 12,6 16,2 2 1 4 2 - 1018,2 10 0 0,0
30.09.2020 06:00:00 9,9 9,3 8,9 10,3 12,6 16,2 2 1 5 3 ESE 1018,4 16 0 0,0
30.09.2020 05:00:00 9,8 9,1 9,3 10,3 12,7 16,2 3 2 5 3 ENE 1018,6 30 0 0,0
30.09.2020 04:00:00 9,8 9,4 8,9 10,4 12,8 16,2 3 2 8 4 E 1018,9 30 0 0,0
30.09.2020 03:00:00 9,9 9,0 9,2 10,4 12,9 16,3 5 3 8 4 E 1019,3 10 0 0,0
30.09.2020 02:00:00 11,2 8,4 10,5 11,1 13,0 16,3 2 1 9 5 - 1019,1 10 0 0,0
30.09.2020 01:00:00 11,3 8,4 11,0 11,3 13,0 16,3 5 3 8 4 WSW 1019,5 25 0 0,0
30.09.2020 00:00:00 11,8 8,7 11,2 11,4 13,1 16,3 2 1 4 2 - 1019,6 10 0 0,0
29.09.2020 23:00:00 11,9 9,0 11,4 11,6 13,2 16,3 3 2 8 4 NE 1019,9 35 0 -
29.09.2020 22:00:00 12,1 9,3 11,2 11,7 13,2 16,3 2 1 5 3 - 1019,9 10 0 0,0
29.09.2020 21:00:00 12,1 9,5 10,9 11,8 13,3 16,3 2 1 5 3 - 1019,9 10 0 0,1
29.09.2020 20:00:00 12,3 9,2 11,6 11,9 13,3 16,3 6 4 13 7 SW 1019,9 30 0 0,0
29.09.2020 19:00:00 12,6 8,9 12,2 12,1 13,4 16,3 8 4 16 9 - 1019,5 10 0 0,0
29.09.2020 18:00:00 12,8 8,9 12,6 12,4 13,4 16,4 8 5 18 10 SSW 1019,2 35 0 0,0
29.09.2020 17:00:00 12,9 9,1 12,8 12,8 13,3 16,4 8 4 21 11 SW 1018,8 40 0 0,0
29.09.2020 16:00:00 13,3 9,3 13,2 13,5 13,2 16,4 10 5 21 11 SSW 1018,5 45 0 0,0
29.09.2020 15:00:00 13,9 9,4 14,2 14,2 13,0 16,4 11 6 23 13 WSW 1018,2 45 0 0,0
29.09.2020 14:00:00 13,9 9,7 13,7 14,2 12,7 16,4 6 4 13 7 SSW 1018,1 30 0 0,0
29.09.2020 13:00:00 12,8 10,4 12,8 13,9 12,5 16,4 5 3 11 6 NNE 1018,3 30 0 0,0
29.09.2020 12:00:00 12,7 10,5 12,8 13,2 12,4 16,4 4 2 8 4 NE 1018,2 30 0 0,0
29.09.2020 11:00:00 11,6 10,4 12,5 12,5 12,2 16,5 4 2 5 3 - 1018,0 10 0 0,0
29.09.2020 10:00:00 10,6 10,3 11,0 11,3 12,2 16,5 3 2 5 3 NE 1017,7 4,5 0 0,1
29.09.2020 09:00:00 9,6 9,3 10,2 10,5 12,2 16,5 4 2 5 3 - 1017,3 4,0 0 0,3
29.09.2020 08:00:00 9,4 8,6 9,5 10,1 12,2 16,5 5 3 8 4 ENE 1016,8 12 0 0,0
29.09.2020 07:00:00 9,3 8,3 9,3 10,0 12,3 16,5 5 3 8 4 ENE 1016,2 20 0 0,0
29.09.2020 06:00:00 9,3 8,0 9,2 9,9 12,3 16,5 2 1 8 4 SSE 1015,7 50 0 0,0
29.09.2020 05:00:00 8,9 7,8 9,0 9,7 12,4 16,6 3 2 9 5 NE 1015,6 70 0 0,0
29.09.2020 04:00:00 8,8 7,7 8,9 9,5 12,6 16,6 5 3 11 6 E 1015,5 10 0 0,0
29.09.2020 03:00:00 9,2 7,6 8,6 9,1 12,8 16,6 2 1 4 2 - 1015,5 10 0 0,0
29.09.2020 02:00:00 9,2 7,1 8,0 8,3 13,1 16,6 2 1 5 3 - 1015,4 10 0 0,0
29.09.2020 01:00:00 8,0 5,0 3,6 8,9 13,4 16,6 2 1 5 3 NE 1015,8 70 0 0,0
29.09.2020 00:00:00 10,6 7,2 7,0 10,1 13,6 16,6 2 1 9 5 - 1015,4 10 0 0,0
28.09.2020 23:00:00 10,9 6,8 9,2 10,9 13,9 16,7 10 5 21 11 SW 1015,0 70 0 0,0
28.09.2020 22:00:00 11,6 7,3 10,7 11,6 14,1 16,7 5 3 11 6 SW 1014,4 70 0 0,0
28.09.2020 21:00:00 12,7 7,2 11,4 12,0 14,3 16,7 8 4 15 8 WNW 1013,6 10 0 0,0
28.09.2020 20:00:00 13,2 7,4 12,1 12,9 14,4 16,7 11 6 18 10 NW 1012,8 10 0 0,0
28.09.2020 19:00:00 14,1 6,6 11,9 14,1 14,4 16,7 3 2 9 5 SE 1011,7 70 10 0,0
28.09.2020 18:00:00 14,7 6,5 13,9 15,7 14,3 16,8 5 3 11 6 SE 1011,0 10 5 0,0
28.09.2020 17:00:00 15,1 6,0 15,7 16,9 13,9 16,8 5 3 15 8 ESE 1010,6 10 7 0,0
28.09.2020 16:00:00 16,4 5,3 20,7 18,9 13,4 16,8 10 5 22 12 ESE 1010,3 70 30 0,0
28.09.2020 15:00:00 14,8 5,5 17,0 20,7 12,6 16,8 5 3 16 9 - 1010,6 10 56 0,0
28.09.2020 14:00:00 14,6 4,8 19,7 20,2 11,8 16,8 4 2 12 7 - 1010,9 10 60 0,0
28.09.2020 13:00:00 13,7 6,1 18,5 18,4 11,1 16,8 5 3 11 6 - 1011,2 10 60 0,0
28.09.2020 12:00:00 12,2 5,5 16,2 15,8 10,5 16,9 5 3 11 6 - 1011,4 10 60 0,0
28.09.2020 11:00:00 10,8 5,3 12,7 11,9 10,2 16,9 4 2 9 5 - 1011,7 10 60 0,0
28.09.2020 10:00:00 9,2 5,4 8,1 8,7 10,1 16,9 4 2 9 5 - 1011,7 10 60 0,0
28.09.2020 09:00:00 6,7 4,9 6,6 6,3 10,2 16,9 4 2 5 3 - 1011,5 10 60 0,0
28.09.2020 08:00:00 3,9 3,5 1,7 5,0 10,3 17,0 4 2 5 3 - 1011,6 10 18 0,0
28.09.2020 07:00:00 4,4 3,9 3,8 5,7 10,5 17,0 4 2 5 3 ESE 1011,0 30 0 0,0
28.09.2020 06:00:00 4,7 4,2 4,5 5,3 10,6 17,0 4 2 8 4 NW 1011,1 40 0 0,0
28.09.2020 05:00:00 4,1 3,6 0,7 5,3 10,8 17,0 2 1 5 3 - 1010,8 10 0 0,0
28.09.2020 04:00:00 4,5 3,8 3,1 5,2 11,1 17,0 2 1 4 2 WNW 1010,7 50 0 0,0
28.09.2020 03:00:00 4,2 3,3 0,4 5,0 11,4 17,1 4 2 5 3 WNW 1010,6 50 0 0,0
28.09.2020 02:00:00 5,0 4,5 0,3 5,7 11,7 17,1 3 1 8 4 WNW 1010,3 50 0 0,0
28.09.2020 01:00:00 5,4 4,1 2,4 6,6 11,9 17,1 4 2 8 4 - 1010,1 10 0 0,0
28.09.2020 00:00:00 6,5 5,1 5,7 7,1 12,2 17,1 5 3 8 4 W 1010,0 50 0 0,0
27.09.2020 23:00:00 6,3 4,7 4,5 6,8 12,5 17,1 4 2 6 3 W 1010,1 10 0 0,0
27.09.2020 22:00:00 5,4 4,0 3,3 7,5 12,8 17,1 5 3 13 7 W 1009,5 10 0 0,0
27.09.2020 21:00:00 7,9 5,5 2,7 8,6 13,1 17,2 2 1 4 2 WNW 1008,7 60 0 0,0
27.09.2020 20:00:00 9,2 4,4 4,7 10,1 13,2 17,2 0 0 12 6 N 1007,5 10 2 0,0
27.09.2020 19:00:00 11,1 4,6 9,4 12,4 13,1 17,2 9 5 17 9 W 1006,5 10 60 0,0
27.09.2020 18:00:00 12,5 4,4 13,0 13,6 12,8 17,2 8 4 22 12 W 1005,5 10 42 0,0
27.09.2020 17:00:00 13,0 5,2 15,3 14,6 12,6 17,2 9 5 20 11 SSW 1005,1 10 38 0,0
27.09.2020 16:00:00 12,2 4,9 13,1 13,1 12,3 17,3 10 6 24 13 SW 1004,8 80 2 0,0
27.09.2020 15:00:00 12,4 5,0 13,8 13,9 12,0 17,3 11 6 22 12 SSW 1004,4 80 26 0,0
27.09.2020 14:00:00 11,6 4,6 12,7 11,8 11,8 17,3 9 5 27 15 - 1004,3 10 0 0,0
27.09.2020 13:00:00 11,7 4,2 12,9 11,9 11,6 17,3 16 9 30 16 SSW 1003,7 10 0 0,0
27.09.2020 12:00:00 10,9 4,6 11,4 11,2 11,3 17,3 15 8 29 16 S 1003,3 10 0 0,0
27.09.2020 11:00:00 10,4 4,7 11,4 11,0 11,1 17,4 13 7 31 17 S 1002,7 70 19 0,0
27.09.2020 10:00:00 9,6 4,8 11,0 9,1 11,1 17,4 13 7 29 15 S 1001,9 10 60 0,0
27.09.2020 09:00:00 8,0 4,5 7,7 7,5 11,1 17,4 11 6 22 12 S 1001,7 10 28 0,0
27.09.2020 08:00:00 7,2 4,2 6,5 7,3 11,2 17,4 12 7 24 13 S 1001,6 70 0 0,0
27.09.2020 07:00:00 7,3 4,5 6,8 7,4 11,3 17,4 12 6 25 13 S 1001,5 60 0 0,0
27.09.2020 06:00:00 7,2 4,7 6,2 7,5 11,4 17,5 11 6 21 11 S 1001,4 40 0 0,0
27.09.2020 05:00:00 7,0 5,3 6,4 7,7 11,4 17,5 10 6 18 10 S 1001,4 25 0 0,3
27.09.2020 04:00:00 7,0 5,4 6,4 7,7 11,5 17,5 12 6 24 13 S 1001,6 10 0 0,8
27.09.2020 03:00:00 7,2 5,4 6,6 7,9 11,6 17,5 12 7 26 14 S 1001,7 12 0 0,6
27.09.2020 02:00:00 7,4 5,7 6,8 7,9 11,7 17,5 15 8 29 16 S 1001,6 12 0 0,5
27.09.2020 01:00:00 7,2 5,9 6,8 7,9 11,8 17,5 11 6 21 11 SSW 1001,8 12 0 0,8
27.09.2020 00:00:00 7,2 5,5 6,7 7,9 11,9 17,6 11 6 24 13 SW 1001,9 10 0 0,1
26.09.2020 23:00:00 7,3 5,4 6,7 7,9 12,0 17,6 14 7 29 16 SSW 1001,8 20 0 0,1
26.09.2020 22:00:00 7,6 4,9 7,4 7,9 12,1 17,6 16 8 36 20 SSW 1001,6 40 0 0,0
26.09.2020 21:00:00 7,3 4,6 7,2 8,0 12,3 17,6 16 8 43 23 SSW 1001,9 30 0 0,0
26.09.2020 20:00:00 7,3 4,3 7,0 8,1 12,4 17,6 21 11 40 22 SW 1001,9 10 0 0,0
26.09.2020 19:00:00 7,7 4,7 7,5 8,7 12,5 17,6 16 8 36 20 SW 1001,6 35 0 0,0
26.09.2020 18:00:00 7,9 4,6 7,2 8,9 12,6 17,6 21 11 49 26 WSW 1001,4 10 0 0,0
26.09.2020 17:00:00 8,2 4,1 8,1 9,4 12,6 17,7 29 16 57 31 WSW 1001,1 10 0 0,0
26.09.2020 16:00:00 8,4 4,2 8,2 10,0 12,5 17,7 31 17 54 29 WSW 1001,0 30 0 0,0
26.09.2020 15:00:00 8,5 4,6 8,7 10,1 12,5 17,7 23 12 44 24 SW 1000,8 45 0 0,1
26.09.2020 14:00:00 8,4 4,5 8,6 10,7 12,4 17,7 22 12 50 27 WSW 1001,2 10 2 0,4
26.09.2020 13:00:00 7,6 5,5 7,6 10,0 12,4 17,7 26 14 45 24 WSW 1001,0 9 0 0,6
26.09.2020 12:00:00 7,3 4,7 6,8 8,9 12,4 17,7 22 12 54 29 WSW 1001,3 10 0 0,1
26.09.2020 11:00:00 7,5 4,5 7,2 9,2 12,5 17,7 24 13 49 27 WSW 1000,5 10 0 0,4
26.09.2020 10:00:00 6,7 4,8 6,5 8,4 12,6 17,7 21 11 38 20 SSW 1001,0 20 0 1,7
26.09.2020 09:00:00 6,9 4,8 6,3 8,2 12,7 17,8 18 10 35 19 SW 1001,2 13 0 0,7
26.09.2020 08:00:00 7,4 4,9 6,5 8,2 12,9 17,8 12 7 31 17 SW 1001,4 25 0 0,1
26.09.2020 07:00:00 7,7 5,1 6,9 8,3 13,0 17,8 13 7 30 16 SW 1001,7 10 0 0,0
26.09.2020 06:00:00 7,6 5,2 6,7 8,6 13,2 17,8 9 5 23 12 SW 1002,0 30 0 0,0
26.09.2020 05:00:00 7,6 5,9 7,0 8,7 13,3 17,8 13 7 31 17 WSW 1002,1 10 0 0,4
26.09.2020 04:00:00 7,6 6,1 7,1 8,8 13,4 17,8 13 7 25 14 WSW 1002,1 10 0 0,0
26.09.2020 03:00:00 7,9 5,7 7,4 9,0 13,6 17,8 16 9 35 19 WSW 1002,5 30 0 0,0
26.09.2020 02:00:00 8,1 6,6 7,6 9,2 13,7 17,8 15 8 29 15 WSW 1002,6 30 0 0,7
26.09.2020 01:00:00 8,6 6,2 8,4 9,3 13,9 17,8 14 8 23 12 SW 1002,6 40 0 0,0
26.09.2020 00:00:00 8,6 6,2 8,4 9,4 14,1 17,8 10 5 23 13 SW 1002,7 30 0 0,0
25.09.2020 23:00:00 8,9 5,5 8,6 9,4 14,3 17,8 16 9 29 15 SW 1001,8 30 0 0,0
25.09.2020 22:00:00 9,3 5,6 8,9 9,6 14,5 17,8 7 4 23 13 SW 1002,3 30 0 0,0
25.09.2020 21:00:00 9,4 5,5 8,8 9,8 14,7 17,8 12 6 24 13 SW 1001,9 30 0 0,0
25.09.2020 20:00:00 9,6 5,1 8,9 10,1 14,9 17,9 10 5 29 16 SSW 1001,4 40 6 0,0
25.09.2020 19:00:00 10,7 5,4 10,3 11,0 15,0 17,9 9 5 22 12 S 1000,7 10 0 0,0
25.09.2020 18:00:00 10,8 5,7 10,4 11,6 15,1 17,9 9 5 21 11 S 1000,8 60 0 0,0
25.09.2020 17:00:00 10,7 5,5 10,8 11,7 15,2 17,9 9 5 21 11 SSW 1001,4 10 0 0,0
25.09.2020 16:00:00 10,4 5,2 10,3 11,5 15,3 17,9 12 7 33 18 S 1001,2 60 0 0,0
25.09.2020 15:00:00 10,7 5,2 10,1 12,3 15,4 17,9 16 8 27 14 S 1001,6 60 0 0,0
25.09.2020 14:00:00 11,2 5,9 11,6 12,8 15,4 17,9 10 6 21 11 SSW 1001,6 60 0 0,0
25.09.2020 13:00:00 11,1 5,8 12,1 12,9 15,5 17,9 9 5 22 12 - 1001,8 10 0 0,0
25.09.2020 12:00:00 10,4 5,4 10,5 12,1 15,6 17,9 11 6 29 16 SSW 1002,5 10 0 0,0
25.09.2020 11:00:00 10,5 7,0 10,6 12,0 15,7 17,9 8 5 25 13 SSW 1002,8 60 0 0,0
25.09.2020 10:00:00 10,5 6,7 10,5 12,2 15,9 17,9 10 5 18 10 S 1002,8 60 0 0,0
25.09.2020 09:00:00 10,3 7,4 10,7 11,8 16,2 17,9 5 3 11 6 - 1002,1 10 0 0,0
25.09.2020 08:00:00 10,0 7,0 9,5 11,6 16,4 17,9 4 2 5 3 SW 1002,2 60 0 0,0
25.09.2020 07:00:00 9,8 7,3 9,0 11,7 16,7 17,9 4 2 29 16 SE 1002,1 40 0 0,0
25.09.2020 06:00:00 10,2 6,9 9,6 12,3 17,0 17,9 16 9 61 33 WSW 1002,0 30 0 0,1
25.09.2020 05:00:00 13,3 11,1 12,5 13,5 17,3 17,9 7 4 18 10 SSW 1000,7 18 0 0,0
25.09.2020 04:00:00 13,1 11,0 11,5 13,7 17,5 17,9 4 2 23 13 S 1000,9 50 0 0,0
25.09.2020 03:00:00 13,5 10,9 12,6 14,2 17,8 17,9 10 5 24 13 SSW 1001,7 50 0 0,0
25.09.2020 02:00:00 13,9 11,6 13,3 14,6 18,1 17,9 8 5 21 11 S 1002,2 50 0 0,0
25.09.2020 01:00:00 14,3 12,3 13,5 15,2 18,3 17,9 10 5 21 11 S 1001,7 35 0 0,0
25.09.2020 00:00:00 14,7 13,5 14,1 15,7 18,6 17,9 5 3 18 10 - 1002,6 10 0 0,0
24.09.2020 23:00:00 14,5 13,9 14,0 16,1 18,9 17,9 5 3 23 12 ESE 1003,0 30 0 2,9

tt = temperature
td = dewpoint
tt 5cm = temperature 5cm
tt -5cm = temperature -5cm
tt -20cm = temperature -20cm
tt -100cm = temperature -100cm
ff = wind speed
fx = gusts
dd = wind direction
ppp = reduced air pressure
vv = visibility
sd = sunshine duration
rr = precipitation

Next stations